This demonstration page uses our WeatherBlox Daily Observations layout. Learn more.

41.55636, -103.73856

Hourly Observations for February 22, 2019

Temp ( °F °C ) Dew Point ( °F °C ) Humidity (%) Winds ( mph kmh ) Pressure ( in mb ) Visibility ( mi km ) Precip ( " mm )
12:58 am 00:58 Cloudy with Light Snow 19 -7.5 15 -9.2 88 88 ESE 10 17 30.1 1019 2.25 3.621015 N/A
1:58 am 01:58 Mostly Cloudy with Scattered Snow Showers 17 -8.1 14 -9.8 88 88 E 12 19 30.12 1020 4 6.43736 N/A
2:58 am 02:58 Mostly Cloudy with Scattered Snow Showers 16 -9 13 -10.6 88 88 ESE 10 17 30.15 1021 10 16.0934 N/A
3:58 am 03:58 Mostly Cloudy 15 -9.4 13 -10.6 91 91 E 12 19 30.13 1020 10 16.0934 N/A
4:58 am 04:58 Cloudy with Light Snow 15 -9.3 13 -10.4 92 92 ESE 8 13 30.14 1021 5 8.0467 N/A
5:58 am 05:58 Mostly Cloudy with Light Snow Showers 15 -9.5 13 -10.6 92 92 ESE 13 20 30.13 1020 0.25 0.402335 N/A
6:58 am 06:58 Mostly Cloudy with Light Snow Showers 15 -9.7 12 -11 90 90 ESE 10 17 30.13 1020 0.25 0.402335 N/A
7:58 am 07:58 Mostly Cloudy with Light Snow Showers 14 -9.8 12 -11.2 90 90 ESE 8 13 30.13 1020 0.25 0.402335 N/A
8:58 am 08:58 Mostly Cloudy with Mist and Fog 14 -9.8 12 -11.2 90 90 ESE 8 13 30.12 1020 1.25 2.011675 N/A
9:58 am 09:58 Mostly Cloudy with Light Snow Showers 14 -10 11 -11.4 90 90 SE 3 6 30.08 1019 1 1.60934 N/A
10:58 am 10:58 Mostly Cloudy with Light Snow Showers 14 -10 11 -11.5 89 89 ESE 7 11 30.09 1019 1 1.60934 N/A
11:58 am 11:58 Mostly Cloudy with Scattered Snow Showers 14 -10 11 -11.4 90 90 ESE 7 11 30.09 1019 7 11.26538 N/A
12:58 pm 12:58 Mostly Cloudy with Mist and Fog 14 -10.1 11 -11.6 89 89 SSE 7 11 30.1 1019 1.25 2.011675 N/A
1:58 pm 13:58 Mostly Cloudy with Light Snow Showers 14 -9.9 12 -11.3 90 90 SE 6 9 30.08 1019 0.5 0.80467 N/A
2:58 pm 14:58 Mostly Cloudy with Scattered Snow Showers 14 -9.9 12 -11.3 90 90 SE 8 13 30.1 1019 3 4.82802 N/A
3:58 pm 15:58 Mostly Cloudy with Scattered Snow Showers 15 -9.4 13 -10.8 90 90 SSE 5 7 30.08 1019 5 8.0467 N/A
4:58 pm 16:58 Mostly Cloudy with Light Freezing Drizzle 16 -8.8 14 -10.1 90 90 S 6 9 30.07 1018 7 11.26538 N/A
5:58 pm 17:58 Mostly Cloudy with Mist and Fog 18 -7.9 16 -9.1 91 91 S 3 6 30.06 1018 2.5 4.02335 N/A
6:58 pm 18:58 Cloudy 20 -6.9 17 -8.1 91 91 Calm 30.01 1016 9 14.48406 N/A
7:58 pm 19:58 Cloudy 21 -6.3 19 -7.4 92 92 Calm 30 1016 10 16.0934 N/A
8:58 pm 20:58 Cloudy 22 -5.8 20 -6.8 93 93 Calm 29.98 1015 10 16.0934 N/A
9:58 pm 21:58 Mostly Cloudy 23 -5.2 21 -6.3 92 92 SE 6 9 29.96 1014 10 16.0934 N/A
10:58 pm 22:58 Cloudy 22 -5.4 20 -6.4 93 93 S 6 9 29.98 1015 7 11.26538 N/A
11:58 pm 23:58 Mostly Cloudy 23 -5.2 21 -6.1 93 93 S 5 7 29.98 1015 9 14.48406 N/A

Powered by AerisWeather